Weather Service Report


417 
FPUS83 KFGF 200531
OPUFGF
PRAIRIE TO PINES WEATHER ROUNDUP
NATIONAL WEATHER SERVICE EASTERN NORTH DAKOTA/GRAND FORKS ND
1200 AM CDT SUN APR 20 2014

 **SATELLITE DATA USED TO AUGMENT SKY COVER AT AUTOMATED STATIONS**
 *****  WEATHER ACROSS EASTERN NORTH DAKOTA  *****
  
CITY           SKY/WX    TMP DP  RH WIND       PRES   REMARKS
GRAND FORKS    CLEAR     39  33  79 W7        30.01R                  
GRAND FORKS AF CLEAR     38  33  82 NW5       30.01S                  
GRAND CITY NWS   N/A     39 N/A N/A NW7         N/A                   
BUXTON           N/A     41  40  96 NW9         N/A                   
DEVILS LAKE    CLEAR     32  25  74 CALM      29.99F                  
FARGO          CLEAR     43  35  73 N3        30.01R                  
WAHPETON ARPT  PTCLDY    46  36  66 N10       30.01S                  
$$

 *****  WEATHER ACROSS CENTRAL AND WESTERN NORTH DAKOTA  *****
  
CITY           SKY/WX    TMP DP  RH WIND       PRES   REMARKS
JAMESTOWN      CLEAR     37  33  85 CALM      30.00R                  
BISMARCK       CLEAR     39  32  76 E8        29.99S                  
MINOT          CLEAR     38  32  79 SE3       29.96S                  
MINOT AFB      CLEAR     33  33  98 S6        29.95S                  
GARRISON         N/A     38  31  76 CALM      29.96S                  
WILLISTON      CLEAR     40  32  73 CALM      29.91F                  
DICKINSON      CLEAR     34  25  69 S8        29.94S                  
HETTINGER      CLEAR     34  23  64 CALM      29.98S                  
$$

 *****  OTHER OBSERVATIONS NORTHEAST NORTH DAKOTA  *****
  
CITY           SKY/WX    TMP DP  RH WIND       PRES   REMARKS
WALHALLA       FAIR      36  34  93 CALM      29.99S                  
LANGDON        FAIR      32  28  86 W7        29.98S                  
CAVALIER       FAIR      36  32  87 W6        29.99S                  
GRAFTON        FAIR      36  32  87 W7        30.00S                  
CANDO          FAIR      30  28  93 S3        29.99F                  
FORT TOTTEN      N/A     39  32  76 CALM      29.95S                  
ROLLA          FAIR      30  30 100 SW5       29.98S                  
RUGBY          FAIR      28  28 100 SE5       29.97F WCI  23          
 ***** THE ABOVE OBSERVATIONS ARE NON NWS ARE NOT QUALITY
        CONTROLLED AND MAY MIS-REPORT RAIN FOR SNOW...
$$

 *****  OTHER OBSERVATIONS SOUTHEAST NORTH DAKOTA *****
  
CITY           SKY/WX    TMP DP  RH WIND       PRES   REMARKS
COOPERSTOWN    FAIR      37  37 100 N8        30.00S                  
VALLEY CITY    FAIR      36  36 100 CALM      30.00F                  
OAKES          FAIR      37  36  93 N7        30.01S                  
GWINNER        CLEAR     43  36  75 N6        30.03R                  
SHEYENNE NWR     N/A     48  38  67 N6        29.95                   
BUFFALO          N/A     40  34  79 NE6         N/A                   
WYNDMERE       NOT AVBL                                               
 ***** THE ABOVE OBSERVATIONS ARE NON NWS ARE NOT QUALITY
       CONTROLLED AND MAY MIS-REPORT RAIN FOR SNOW...
$$

  *****  WEATHER ACROSS NORTHERN MINNESOTA  *****     
  
CITY           SKY/WX    TMP DP  RH WIND       PRES   REMARKS
FLAG ISLAND    CLEAR     37  34  87 W10       29.94S                  
WARROAD        CLEAR     39  34  81 W6        29.97S                  
ROSEAU         CLEAR     39  34  81 W6        29.98R                  
HALLOCK        CLOUDY    36  34  93 CALM      29.99S                  
THF RVR FALLS  CLEAR     41  34  75 W7        30.01R                  
HALSTAD          N/A     39  36  86 CALM        N/A                   
FOSSTON        CLEAR     37  34  87 CALM      30.01S                  
BAUDETTE       CLEAR     41  35  79 W3        29.96R                  
WASKISH        CLEAR     41  37  87 SW12      29.98R                  
CROOKSTON      CLEAR     39  34  81 NW7       30.01S                  
$$
  *****  WEATHER ACROSS CENTRAL AND WEST MINNESOTA  *****     
  
CITY           SKY/WX    TMP DP  RH WIND       PRES   REMARKS
BEMIDJI        CLEAR     41  35  81 W5        30.00S                  
PARK RAPIDS    CLEAR     40  32  73 NW7       29.99R                  
WADENA         CLEAR     39  30  70 NW5       29.99R                  
DETROIT LAKES  CLEAR     45  37  76 CALM      30.02S                  
MOORHEAD       CLEAR     41  39  93 N5        30.02S                  
FERGUS FALLS   PTCLDY    48  36  61 N7        29.98R                  
ELBOW LAKE     FAIR      47  34  59 SE5       29.98F                  
MORRIS MN      PTCLDY    45  36  70 S8        29.99S                  
STAPLES        CLEAR     45  30  57 S5        29.98S                  
WHEATON        PTCLDY    45  34  65 W7        30.02R                  
$$
  *****  WEATHER ELSEWHERE ACROSS MINNESOTA  *****     
  
CITY           SKY/WX    TMP DP  RH WIND       PRES   REMARKS
DULUTH         CLEAR     33  29  85 SE3       29.99F                  
INTRNTL FALLS  CLEAR     44  36  73 W6        29.94R                  
ELY            CLEAR     39  36  87 CALM      29.96F                  
CLOQUET        CLEAR     30  28  93 CALM      30.00S                  
BRAINERD       CLEAR     42  33  70 CALM      29.99S                  
HIBBING        CLEAR     34  31  88 CALM      29.97F                  
ALEXANDRIA     PTCLDY    48  32  53 S5        30.00S                  
SAINT CLOUD    FOG       39  37  93 CALM      30.01R VSB 3/4          
MINNEAPOLIS    LGT RAIN  52  52 100 CALM      30.02S FOG              
$$

  *****  WEATHER ACROSS SOUTH DAKOTA  *****
  
CITY           SKY/WX    TMP DP  RH WIND       PRES   REMARKS
SIOUX FALLS    CLOUDY    55  41  59 NE5       30.01F                  
BROOKINGS      NOT AVBL                                               
WATERTOWN      PTCLDY    44  30  57 S5        30.01F                  
HURON          PTCLDY    47  31  53 CALM      30.00F                  
SISSETON         N/A     46  31  55 CALM      29.98S                  
ABERDEEN       PTCLDY    38  26  62 SW6       30.00R                  
MITCHELL         N/A     49  28  44 CALM      30.01F                  
PIERRE         PTCLDY    42  28  57 CALM      29.99F                  
MOBRIDGE       CLEAR     45  27  49 E5        29.97S                  
RAPID CITY     PTCLDY    45  28  51 CALM      29.99F                  
$$

  *****  SOME WEATHER IN NEARBY STATES *****
  
CITY           SKY/WX    TMP DP  RH WIND       PRES   REMARKS
GLASGOW MT     CLEAR     42  28  57 E13       29.85F                  
GREAT FALLS MT MOCLDY    49  19  30 E7        29.79F                  
CHEYENNE WY    PTCLDY    48  40  73 SW12      30.08F                  
SCOTTSBLUFF NE PTCLDY    49  34  56 SE10      30.01F                  
OMAHA NE       MOCLDY    70  44  39 S16       30.00R                  
DES MOINES IA  CLOUDY    66  44  45 S10       30.07F                  
DAVENPORT IA   PTCLDY    58  36  43 S10       30.17R                  
CHICAGO IL     PTCLDY    54  35  48 SE12      30.23S                  
EAU CLAIRE WI  CLOUDY    59  41  51 SE3       30.02S                  
LA CROSSE WI   MOCLDY    62  39  42 S13       30.06S                  
$$

  *****  SOME NATIONAL WEATHER *****
  
CITY           SKY/WX    TMP DP  RH WIND       PRES   REMARKS
LA GUARDIA NY  PTCLDY    52  25  35 NE14G21   30.36R                  
RALEIGH NC     CLOUDY    52  40  63 NE6       30.21F                  
ATLANTA GA     MOCLDY    54  43  66 NE13      30.18S                  
NEW ORLEANS LA CLEAR     66  57  72 CALM      30.11F                  
OKLAHOMA CITY  MOCLDY    63  50  62 S12       30.09R                  
ALBUQUERQUE NM CLOUDY    52  45  77 SW8       30.12S                  
SALT LAKE CITY PTCLDY    57  38  48 SE8       29.99S                  
LOS ANGELES CA CLEAR     61  55  81 S6        30.03R                  
BOISE ID       PTCLDY    58  32  37 NW21G37   29.98R                  
SEATTLE WA     PTCLDY    46  42  86 S10       30.15R                  
$$

*** WEATHER ACROSS MANITOBA...SASKATCHEWAN AND ONTARIO ***
                ***ONTARIO***
  
CITY           SKY/WX    TMP DP  RH WIND       PRES   REMARKS
GERALDTON      PTCLDY   N/A N/A N/A S13G20      N/A                   
THUNDER BAY    CLEAR     30  30 100 E3        30.03F                  
SIOUX LOOKOUT  MOCLDY    36  34  93 SW2       29.89R                  
TORONTO        PTCLDY    41  27  56 E3        30.42R                  
BIG TROUT LK   LGT SNOW  32  30  93 SE14      29.74F WCI  22          
PICKLE LAKE    NOT AVBL                                               
DRYDEN         CLOUDY    39  34  81 SW7       29.91R                  
KENORA         CLOUDY    39  30  70 W8        29.93R                  
$$      
                *** MANITOBA***
  
CITY           SKY/WX    TMP DP  RH WIND       PRES   REMARKS
BRANDON        PTCLDY    34  30  86 W7        29.96S                  
DAUPHIN        CLOUDY    36  28  75 W13G20    29.93S                  
ISLAND LAKE    FLURRIES  34  34 100 W7        29.67S                  
PILOT MOUND      N/A     28  27  93 SW5         N/A  WCI  23          
THE PAS        CLEAR     27  27 100 NW10      29.84R WCI  17          
THOMPSON       LGT SNOW  32  32 100 N7        29.76S                  
WINNIPEG       CLEAR     34  28  80 W9        29.97S                  
LYNN LAKE      MOCLDY    28  25  86 NE3       29.84R                  
CHURCHILL      MOCLDY    18  16  93 E12       29.97F WCI   5          
GILLAM         LGT SNOW  30  30 100 NE10      29.79  WCI  21          
$$
                ***SASKATCHEWAN***
  
CITY           SKY/WX    TMP DP  RH WIND       PRES   REMARKS
ESTEVAN        CLEAR     36  34  93 E6        29.93                   
KINDERSLEY     MOCLDY    37  32  81 SE14      29.80R                  
LLOYDMINSTER   CLOUDY    36  30  80 SE14G20   29.78S                  
PRINCE ALBERT  CLOUDY    34  28  80 SW2       29.89S                  
REGINA         CLEAR     32  30  93 SE2       29.92F                  

Return to Home page


Western Regional Climate Center, wrcc@dri.edu